Home   Weather   Labrador City   Past weeks

Flag for Canada Past Weather in Labrador City, Newfoundland and Labrador, Canada — Yesterday and Last 2 Weeks

Now
-18 °F

Passing clouds.


Feels Like: -18 °F
Forecast: -26 / -14 °F
Wind: 2 mph from South

Location: Wabush Lake

Current Time: Jan 17, 2017 at 11:27:12 am

Latest Report: Jan 17, 2017 at 11:00 am


Visibility: 15 mi

Pressure: 30.42 "Hg (28.14 "Hg at 558m altitude)

Humidity: 69%

Dew Point: -26 °F

Location of Labrador CityLocation

Past Weather in Labrador City — Graph

°F

Labrador City Temperature Yesterday

Maximum temperature yesterday: 0 °F (at 4:00 pm)
Minimum temperature yesterday: -26 °F (at 12:00 am)
Average temperature yesterday: -10 °F

High & Low Weather Summary for the Past Weeks

 TemperatureHumidityPressure
High30 °F (Jan 11, 4:36 pm)93% (Jan 11, 8:05 am)30.52 "Hg (Jan 11, 8:05 am)
Low-44 °F (Jan 8, 9:00 am)52% (Jan 12, 2:00 pm)28.95 "Hg (Jan 5, 12:00 pm)
Average-7 °F74%29.95 "Hg
* Reported Jan 2 9:00 am — Jan 17 9:00 am, Labrador City, Weather by CustomWeather, © 2017

Note: Actual official high and low records may vary slightly from our data, if they occured in-between our weather recording intervals... More about our weather records

Advertising

Labrador City Weather History for the Previous 24 Hours

Scroll right to see more
 ConditionsComfort  
Time TempWeatherWind HumidityBarometerVisibility
9:00 am
Tue, Jan 17
-26 °FSnow flurries. Passing clouds.2 mph67%30.39 "Hg15 mi
8:00 am-24 °FSnow flurries. Clear.5 mph75%30.36 "Hg12 mi
7:26 am-20 °FSnow flurries. Clear.2 mph75%30.32 "Hg6 mi
7:00 am-22 °FLight snow. Passing clouds.2 mph75%30.30 "Hg5 mi
6:00 am-17 °FLight snow. Overcast.10 mph69%30.26 "Hg4 mi
5:53 am-17 °FOvercast.12 mph69%30.26 "Hg2 mi
5:10 am-17 °FLight snow. Overcast.5 mph76%30.25 "Hg2 mi
5:02 am-17 °FLight snow. Overcast.7 mph69%30.24 "Hg3 mi
4:23 am-18 °FLight snow. Mostly cloudy.6 mph75%30.23 "Hg2 mi
4:00 am-18 °FMostly cloudy.3 mph75%30.23 "Hg5 mi
3:59 am-18 °FMostly cloudy.5 mph75%30.23 "Hg5 mi
3:23 am-17 °FPassing clouds.3 mph69%30.20 "Hg9 mi
3:00 am-17 °FPassing clouds.7 mph76%30.18 "Hg9 mi
2:53 am-17 °FPassing clouds.9 mph76%30.17 "Hg9 mi
2:00 am-15 °FPassing clouds.7 mph69%30.13 "Hg9 mi
1:58 am-15 °FPassing clouds.6 mph69%30.13 "Hg9 mi
1:30 am-15 °FPassing clouds.9 mph76%30.11 "Hg9 mi
1:00 am-15 °FClear.8 mph76%30.09 "Hg9 mi
12:40 am-13 °FPassing clouds.10 mph69%30.08 "Hg9 mi
12:00 am-11 °FOvercast.14 mph70%30.06 "Hg9 mi
11:00 pm
Mon, Jan 16
-11 °FPassing clouds.15 mph70%30.02 "Hg9 mi
10:00 pm-9 °FSnow flurries. Passing clouds.12 mph70%29.98 "Hg12 mi
9:00 pm-6 °FLight snow. Passing clouds.13 mph70%29.93 "Hg10 mi
8:00 pm-4 °FSnow flurries. Passing clouds.14 mph77%29.86 "Hg12 mi
7:00 pm-2 °FSnow flurries. Partly cloudy.8 mph77%29.81 "Hg10 mi
6:00 pm-2 °FLight snow. Mostly cloudy.6 mph84%29.76 "Hg5 mi
5:00 pm0 °FLight snow. Overcast.No wind78%29.74 "Hg6 mi
4:00 pm0 °FLight snow. Mostly cloudy.6 mph78%29.71 "Hg3 mi
3:16 pm-2 °FLight snow. Overcast.6 mph84%29.70 "Hg2 mi
3:00 pm-2 °FLight snow. Ice fog.7 mph77%29.70 "Hg1 mi
2:00 pm-4 °FLight snow. Overcast.8 mph77%29.71 "Hg2 mi
1:35 pm-4 °FLight snow. Overcast.10 mph77%29.73 "Hg1 mi
1:00 pm-4 °FLight snow. Overcast.10 mph77%29.74 "Hg2 mi
12:00 pm-6 °FLight snow. Mostly cloudy.10 mph77%29.78 "Hg2 mi
11:41 am-6 °FLight snow. Mostly cloudy.13 mph70%29.79 "Hg1 mi
11:00 am-8 °FLight snow. Overcast.10 mph70%29.83 "Hg2 mi
Weather by CustomWeather, © 2017

See weather overviewHow to use our weather pages